Regional Weather Roundup
Issued by NWS Sterling, VA

Home | Current Version | Previous Version | Text Only | Print | Product List | Glossary Off
Versions: 1 2 3 4 5 6 7 8 9 10 11 12 13 14 15 16 17 18 19 20 21 22 23 24 25 26 27 28 29 30 31 32 33 34 35 36 37 38 39 40 41 42 43 44 45 46 47 48 49 50

000
ASUS41 KLWX 300610
RWRLWX

REGIONAL WEATHER ROUNDUP
NATIONAL WEATHER SERVICE BALTIMORE MD/WASHINGTON DC
200 AM EDT TUE JUN 30 2015

Note: "FAIR" indicates few or no clouds below 12,000 feet
with no significant weather and/or obstructions to visibility.
 TC=TEMPERATURE CELSIUS

 * =Non NWS site. Station does not report precipitation (e.g. rain,
    snow, etc.), thunder, or fog.

DCZ001-MDZ009-015-VAZ040>042-051-053>054-300700-
WASHINGTON METRO

CITY           SKY/WX    TMP DP  RH WIND       PRES   REMARKS
WASHINGTON NAT CLEAR     73  64  73 S5        29.93F
DULLES         PTCLDY    69  61  75 S8        29.92F
ANDREWS AFB    CLEAR     67  64  90 SE8       29.93F
FT BELVOIR     CLEAR     63  61  94 CALM      29.92F FOG
QUANTICO       CLEAR     74  66  76 S10       29.93F
COLLEGE PARK*  CLEAR     64  63  94 CALM      29.93F
LEESBURG*      CLEAR     68  63  83 CALM      29.93F
MANASSAS*      CLEAR     64  63  94 CALM      29.92F
GAITHERSBURG*  PTCLDY    64  57  77 SE7       29.97F

$$

MDZ006>007-011-014-300700-
BALTIMORE METRO

CITY           SKY/WX    TMP DP  RH WIND       PRES   REMARKS
BWI AIRPORT    PTCLDY    68  62  81 CALM      29.93F
MD SCIENCE CTR   N/A     71  62  73 MISG      29.94F
MARTIN STATE   CLEAR     73  68  83 SE9       29.95S
ANNAPOLIS      CLEAR     73  65  75 S5        29.93F
FORT MEADE*    CLEAR     61  59  94 CALM      29.96S

$$

MDZ012-015-019>023-300700-
MARYLAND EASTERN SHORE

CITY           SKY/WX    TMP DP  RH WIND       PRES   REMARKS
OCEAN CITY     CLEAR     72  68  87 S3        29.97F
SALISBURY      CLEAR     65  63  93 E3        29.97S
BAY BRIDGE AP*   N/A     72  64  78 SE7       29.94F
CAMBRIDGE*     CLEAR     68  64  88 SE5       29.95S
EASTON*        CLEAR     69  65  86 S5        29.99S

$$

MDZ017>025-300700-
SOUTHERN MARYLAND

CITY           SKY/WX    TMP DP  RH WIND       PRES   REMARKS
PATUXENT RIVER CLEAR     72  66  81 S6        29.94F
ST INIGOES     CLEAR     75  69  81 S9        29.94S
LEONARDTOWN*   CLEAR     70  64  83 CALM      29.96S

$$

MDZ003>005-300700-
NORTH CENTRAL MARYLAND

CITY           SKY/WX    TMP DP  RH WIND       PRES   REMARKS
FREDERICK*     PTCLDY    63  61  94 CALM      29.95F
HAGERSTOWN APT CLOUDY    73  56  54 S9        29.90F
WESTMINSTER*   PTCLDY    70  57  64 SE8       29.94F

$$

MDZ501>502-300700-
WESTERN MARYLAND

CITY           SKY/WX    TMP DP  RH WIND       PRES   REMARKS
OAKLAND*       CLOUDY    61 N/A N/A SW12G17   29.95F
CUMBERLAND*    CLOUDY    68  63  83 CALM      29.92F

$$

VAZ025>031-300700-
SHENANDOAH VALLEY

CITY           SKY/WX    TMP DP  RH WIND       PRES   REMARKS
WINCHESTER*    MOCLDY    64  61  88 CALM      29.91F
FRONT ROYAL*   FAIR      63  61  94 CALM      29.90F
LURAY*         FAIR      66  63  88 CALM      29.92S
NEW MARKET*    FAIR      64  60  88 CALM      29.91S
STAUNTON*      PTCLDY    63  60  89 CALM      29.95F
WAYNESBORO*    FAIR      64  58  82 CALM      29.95F

$$

WVZ021-048>050-054>055-300700-
EASTERN WEST VIRGINIA PANHANDLE

CITY           SKY/WX    TMP DP  RH WIND       PRES   REMARKS
MARTINSBURG    MOCLDY    65  59  81 CALM      29.91F
PETERSBURG*    DRIZZLE   65  60  85 CALM      29.91S

$$

VAZ036>039-050-300700-
CENTRAL FOOTHILLS

CITY           SKY/WX    TMP DP  RH WIND       PRES   REMARKS
CHARLOTTESVILL CLEAR     63  61  93 N3        29.92F
CULPEPER*        N/A     61  60  97 CALM      29.93F
ORANGE*        CLEAR     63  61  94 CALM      29.94F
GORDONSVILLE*  FAIR      63  61  94 CALM      29.92F
WARRENTON*     FAIR      63  63  99 CALM      29.92S

$$

VAZ055>057-300700-
NORTH AND CENTRAL PIEDMONT

CITY           SKY/WX    TMP DP  RH WIND       PRES   REMARKS
FREDERICKSBRG* CLEAR     70  65  83 SE3       29.92S
STAFFORD*      CLEAR     60  59  96 CALM      29.96F

$$

NCZ024-NYZ072-PAZ021-071-VAZ022-071-300700-
OTHER REGIONAL OBSERVATIONS

CITY           SKY/WX    TMP DP  RH WIND       PRES   REMARKS
NEW YORK CITY  CLEAR     72  56  57 VRB7      29.98R
PHILADELPHIA   PTCLDY    70  59  68 S5        29.96S
PITTSBURGH     CLOUDY    63  60  90 SE3       29.84F
ROANOKE        PTCLDY    65  61  87 NW3       29.96F
RICHMOND       PTCLDY    71  67  87 SE7       29.93F
RALEIGH        PTCLDY    73  65  75 CALM      29.94F

$$

ANZ530>537-300700-
MARINE OBSERVATIONS

STATION/POSITION TIME  TEMP    WIND        PRES
                       AIR SEA DIR/SP/G
                 (UTC) (F)     (DEG/KT/KT) (MB)
THOMAS PT LIGHT  NOT AVBL
BALT KEY BRIDGE  0500   74     160/  9/ 10 1013.6F
COVE POINT       0500   75     200/ 11/ 14 1014.7S
LEWISETTA        0500   74 80  180/  6/  8 1013.9F
SOLOMONS ISLAND  0500      79                N/A
PINEY POINT      0500          190/ 15/ 16   N/A

$$




USA.gov is the U.S. government's official web portal to all federal, state and local government web resources and services.